GW5434 Weather Reports


Display with metric or nautical units.
time (UTC)temp
F
wind
direction
speed
MPH
gust
MPH
rain 1hr
in
rain 24hr
in
rain mn
in
humidity
%
barometer
mb
20260509001526 64 313 0.0 0.0 0.00 0.80 0.80 94 1012.5
20260509000026 64 312 0.0 0.0 0.00 0.80 0.80 94 1012.5
20260508234530 64 311 0.0 1.0 0.00 0.80 0.80 94 1012.5
20260508233034 64 110 0.0 1.0 0.00 0.80 0.80 93 1012.9
20260508231522 64 174 0.0 1.0 0.00 0.80 0.80 93 1012.8
20260508230025 64 174 0.0 1.0 0.00 0.80 0.80 94 1012.9
20260508224528 64 98 1.0 2.0 0.02 0.80 0.80 94 1012.4
20260508223004 64 173 1.0 4.0 0.03 0.80 0.80 94 1012.5
20260508221505 63 93 1.0 4.0 0.03 0.80 0.80 94 1012.5
20260508220003 63 238 2.0 7.0 0.05 0.80 0.80 94 1012.8
20260508214514 63 84 2.0 3.0 0.06 0.78 0.78 94 1012.5
20260508213004 63 134 0.0 8.0 0.08 0.77 0.77 94 1013.1
20260508211504 62 174 3.0 7.0 0.12 0.77 0.77 94 1012.7
20260508210004 62 174 1.0 10.0 0.11 0.75 0.75 95 1013.5
20260508204504 61 160 2.0 7.0 0.12 0.72 0.72 94 1014.1
20260508203004 61 109 0.0 0.0 0.12 0.69 0.69 94 1015.3
20260508201503 61 75 0.0 0.0 0.11 0.65 0.65 94 1015.8
20260508200006 61 103 0.0 3.0 0.14 0.64 0.64 94 1015.4
20260508194507 61 148 1.0 5.0 0.12 0.60 0.60 94 1015.4
20260508193005 61 143 1.0 3.0 0.12 0.57 0.57 94 1015.3
20260508191503 61 10 0.0 1.0 0.13 0.54 0.54 94 1014.7
20260508190005 61 308 2.0 3.0 0.14 0.50 0.50 93 1014.9
20260508184504 61 63 1.0 4.0 0.14 0.48 0.48 93 1014.1
20260508183004 61 15 1.0 3.0 0.15 0.45 0.45 93 1015.2
20260508181505 61 113 1.0 4.0 0.20 0.41 0.41 93 1015.8
20260508180007 61 210 3.0 6.0 0.19 0.36 0.36 93 1015.8
20260508174509 61 146 3.0 4.0 0.21 0.34 0.34 93 1015.9
20260508173008 61 176 1.0 5.0 0.21 0.30 0.30 93 1016.2
20260508171504 61 6 2.0 4.0 0.16 0.21 0.21 92 1016.9
20260508170008 61 33 2.0 5.0 0.15 0.17 0.17 93 1017.0
20260508164507 61 322 2.0 5.0 0.12 0.13 0.13 93 1016.7
20260508163014 62 318 0.0 1.0 0.08 0.09 0.09 92 1016.7
20260508161508 62 139 0.0 0.0 0.04 0.05 0.05 91 1017.2
20260508160008 62 278 0.0 2.0 0.02 0.02 0.02 90 1017.4
20260508154508 62 6 0.0 3.0 0.01 0.01 0.01 89 1016.4
20260508153017 63 140 0.0 2.0 0.01 0.01 0.01 89 1015.8
20260508151508 63 356 0.0 2.0 0.01 0.01 0.01 86 1016.6
20260508150011 64 333 0.0 1.0 0.00 0.00 0.00 85 1016.2
20260508144512 64 337 0.0 1.0 0.00 0.00 0.00 84 1016.1
20260508143013 64 118 0.0 3.0 0.00 0.00 0.00 83 1016.3
20260508141512 65 319 0.0 4.0 0.00 0.00 0.00 83 1016.5
20260508140013 64 70 1.0 4.0 0.00 0.00 0.00 85 1016.3
20260508134515 63 100 1.0 1.0 0.00 0.00 0.00 86 1016.4
20260508133012 63 122 0.0 2.0 0.00 0.00 0.00 88 1016.4
20260508131511 62 13 0.0 4.0 0.00 0.00 0.00 89 1016.4
20260508130012 61 58 1.0 5.0 0.00 0.00 0.00 91 1016.3
20260508124515 61 70 0.0 4.0 0.00 0.00 0.00 93 1016.2
20260508123022 60 81 1.0 3.0 0.00 0.00 0.00 95 1016.1
20260508121515 60 51 0.0 0.0 0.00 0.00 0.00 95 1016.7
20260508120013 60 30 0.0 0.0 0.00 0.00 0.00 95 1017.2
20260508114516 59 30 0.0 0.0 0.00 0.00 0.00 95 1016.8
20260508113016 59 30 0.0 0.0 0.00 0.00 0.00 95 1016.4
20260508111517 59 95 0.0 0.0 0.00 0.00 0.00 95 1016.5
20260508110028 59 96 0.0 0.0 0.00 0.00 0.00 94 1016.3
20260508104517 60 333 0.0 0.0 0.00 0.00 0.00 95 1016.3
20260508103035 60 333 0.0 0.0 0.00 0.00 0.00 95 1016.1
20260508101518 60 333 0.0 0.0 0.00 0.00 0.00 95 1015.7
20260508100016 60 333 0.0 0.0 0.00 0.00 0.00 95 1015.3
20260508094515 60 113 0.0 0.0 0.00 0.00 0.00 95 1015.0
20260508093019 60 360 0.0 0.0 0.00 0.00 0.00 95 1015.1
20260508091518 60 333 0.0 0.0 0.00 0.00 0.00 95 1015.5
20260508090018 60 174 0.0 1.0 0.00 0.12 0.00 95 1015.1
20260508084519 60 94 0.0 0.0 0.00 0.48 0.00 95 1014.6
20260508083017 59 90 0.0 1.0 0.00 0.50 0.00 95 1014.6
20260508081522 60 117 1.0 1.0 0.00 0.50 0.00 95 1015.0
20260508080021 60 159 0.0 0.0 0.00 0.56 0.00 95 1015.7
20260508074519 60 174 0.0 0.0 0.00 0.58 0.00 95 1015.7
20260508073020 60 174 0.0 0.0 0.00 0.58 0.00 95 1015.5
20260508071521 60 174 0.0 1.0 0.00 0.58 0.00 95 1015.6
20260508070022 59 160 0.0 0.0 0.00 0.60 0.00 94 1015.4
20260508064519 59 160 0.0 2.0 0.00 0.61 0.00 94 1015.3
20260508063022 59 138 0.0 0.0 0.00 0.61 0.00 94 1015.3
20260508061524 59 146 0.0 0.0 0.00 0.61 0.00 94 1015.5
20260508060027 60 153 0.0 0.0 0.00 0.61 0.00 93 1015.5
20260508054602 60 141 0.0 0.0 0.00 0.61 0.00 94 1015.8
20260508053031 60 141 0.0 0.0 0.00 0.61 0.00 93 1015.6
20260508051523 61 141 0.0 0.0 0.00 0.62 0.00 93 1015.6
20260508050024 61 141 0.0 0.0 0.00 0.96 0.00 93 1015.8
20260508044524 61 141 0.0 0.0 0.00 1.39 0.96 93 1016.0
20260508043004 61 82 0.0 0.0 0.00 1.54 0.96 94 1016.3
20260508041513 61 335 0.0 0.0 0.00 1.58 0.96 93 1016.4
20260508040015 61 122 0.0 0.0 0.00 1.58 0.96 93 1016.0
20260508034523 61 122 0.0 0.0 0.00 1.58 0.96 93 1016.5
20260508033006 61 49 0.0 0.0 0.00 1.58 0.96 93 1016.7
20260508031507 62 358 0.0 0.0 0.00 1.58 0.96 92 1016.5
20260508030010 62 61 0.0 0.0 0.00 1.58 0.96 92 1016.7
20260508024514 62 61 0.0 0.0 0.00 1.58 0.96 92 1016.5
20260508023019 62 61 0.0 0.0 0.00 1.58 0.96 91 1016.3
20260508021504 62 61 0.0 0.0 0.00 1.58 0.96 91 1015.9
20260508020008 63 61 0.0 0.0 0.00 1.58 0.96 90 1015.4
20260508014511 63 60 0.0 0.0 0.00 1.58 0.96 89 1015.5
20260508013016 64 9 0.0 0.0 0.00 1.58 0.96 88 1015.6
20260508011522 64 321 0.0 0.0 0.00 1.58 0.96 87 1015.7
20260508010012 64 332 0.0 1.0 0.00 1.58 0.96 86 1015.7
20260508004518 65 6 0.0 0.0 0.00 1.58 0.96 86 1015.5
20260508003014 65 15 0.0 1.0 0.00 1.58 0.96 84 1015.4